sat.trackr.live / text

‹ back to catalog

KUIPER-00104

NORAD 65142 · 2025-171L

PAYLOAD ACTIVE UNKNOWN

§ Identity

Operator
Country
US
Launch date
2025-08-11
Launch site
AFETR
Launch vehicle
Mass (kg)
RCS (m²)

External: N2YO · Heavens-Above · Gunter

§ Orbital elements

Epoch: 2026-05-25T02:05:53.202048Z

Period
97.30 min
Inclination
51.8982°
Eccentricity
0.0000329
Mean motion
14.79932691 rev/d
Perigee alt
629.3 km
Apogee alt
629.8 km
Semi-major
7,007.7 km
B*
-2.4081e-5
RAAN
180.2148°
Arg perigee
73.1501°
Mean anomaly
286.9498°
Rev number
4,420

§ Raw data

KUIPER-001041 65142U 25171L   26145.08742132 -.00000405  00000+0 -24081-4 0  99982 65142  51.8982 180.2148 0000329  73.1501 286.9498 14.79932691 44205

JSON: /api/v1/satellites/65142 · /tle

For live sub-satellite position, see the globe view (requires WebGL).

§ Visibility from observer

Set your observer location to see the next 7 days of passes ≥ 10°. The values pass through the URL so the page stays shareable.

No JS? Fill the form by hand. The geolocation button needs JavaScript.